User: anonymous   Login
Location: Unspecified
(0.0000°N, 0.0000°E)
Time: 22:25:11
(UTC+00:00)
Language:

STARLINK-3957 - Orbit

View from above orbital plane
View from above orbital plane
View from above satellite
View from above satellite

Ground track
Ground track

The orbit is defined by the following mean orbital elements,

1 52562U          26145.41332928 +.00000000 +00000-0 +23854-4 0 00009
2 52562  53.2137 134.6933 0001191  71.9150 288.1972 15.08838838    06
Epoch (UTC): 25 May 2026 09:55:11
Eccentricity: 0.0001191
inclination: 53.2137°
perigee height: 539 km
apogee height: 541 km
right ascension of ascending node: 134.6933°
argument of perigee: 71.9150°
revolutions per day: 15.08838838
mean anomaly at epoch: 288.1972°

The dashed part of the orbit path shows where the satellite is in the earth's shadow,  

DLR